Ellensburg, WA

1:58 PM PDT on August 19, 2017 (GMT -0700)
Bowers

Weather History for KELN - May, 2014

Change the Weather History Date:

Tuesday, May 6, 2014

  Actual Average (KYKM) Record (KYKM)
Temperature  
Mean Temperature 56 °F -  
Max Temperature 66 °F 70 °F 93 °F (1992)
Min Temperature 46 °F 42 °F 27 °F (2000)
Degree Days  
Heating Degree Days 9    
Growing Degree Days 6 (Base 50)    
Moisture  
Dew Point 36 °F    
Average Humidity 49    
Maximum Humidity 68    
Minimum Humidity 32    
Precipitation  
Precipitation 0.00 in - - ()
Sea Level Pressure  
Sea Level Pressure 29.90 in    
Wind  
Wind Speed 20 mph (NW)    
Max Wind Speed 28 mph    
Max Gust Speed 38 mph    
Visibility 10 miles    
Events      
Averages and records for this station are not official NWS values.
T = Trace of Precipitation, MM = Missing Value Source: NWS Daily Summary

Daily Weather History Graph

Daily Weather History Graph

Search for Another Location

Airport or City:

Trip Planner

Search our weather history database for the weather conditions in past years. The results will help you decide how hot, cold, wet, or windy it might be!

Date:

Astronomy

May. 06, 2014 Rise Set
Actual Time 5:38 AM PDT 8:19 PM PDT
Civil Twilight 5:04 AM PDT 8:54 PM PDT
Nautical Twilight 4:20 AM PDT 9:38 PM PDT
Astronomical Twilight 3:29 AM PDT 10:30 PM PDT
Moon 12:04 PM PDT (5/6) 1:37 AM PDT (5/6)
Length of Visible Light 15h 50m
Length of Day
14h 40m
Waxing Crescent, 47% of the Moon is Illuminated
May 6
Waxing Crescent
May 6
First Quarter
May 14
Full
May 21
Last Quarter
May 28
New

Hourly Weather History & Observations

Time (PDT) Temp. Dew Point Humidity Pressure Visibility Wind Dir Wind Speed Gust Speed Precip Events Conditions
12:53 AM 46.9 °F 37.0 °F 68% 29.94 in 10.0 mi NW 15.0 mph - N/A   Clear
4:53 AM 46.9 °F 36.0 °F 66% 29.93 in 10.0 mi NNW 17.3 mph - N/A   Clear
5:53 AM 46.9 °F 36.0 °F 66% 29.94 in 10.0 mi NW 17.3 mph - N/A   Clear
7:53 AM 52.0 °F 37.9 °F 59% 29.95 in 10.0 mi NNW 18.4 mph 25.3 mph N/A   Clear
8:53 AM 55.0 °F 39.0 °F 55% 29.94 in 10.0 mi NW 19.6 mph - N/A   Clear
9:53 AM 57.9 °F 37.9 °F 47% 29.93 in 10.0 mi WNW 24.2 mph 29.9 mph N/A   Clear
10:53 AM 61.0 °F 37.9 °F 42% 29.91 in 10.0 mi NW 21.9 mph 27.6 mph N/A   Clear
11:53 AM 63.0 °F 37.9 °F 40% 29.90 in 10.0 mi WNW 20.7 mph 27.6 mph N/A   Clear
12:53 PM 64.9 °F 35.1 °F 33% 29.88 in 10.0 mi WNW 17.3 mph - N/A   Clear
1:53 PM 66.0 °F 35.1 °F 32% 29.87 in 10.0 mi NW 24.2 mph 28.8 mph N/A   Clear
2:53 PM 64.9 °F 35.1 °F 33% 29.87 in 10.0 mi WNW 24.2 mph 31.1 mph N/A   Clear
3:53 PM 63.0 °F 35.1 °F 35% 29.87 in 10.0 mi WNW 26.5 mph 36.8 mph N/A   Clear
4:53 PM 61.0 °F 35.1 °F 38% 29.87 in 10.0 mi WNW 27.6 mph 38.0 mph N/A   Clear
5:53 PM 60.1 °F 35.1 °F 39% 29.87 in 10.0 mi WNW 27.6 mph 35.7 mph N/A   Partly Cloudy
6:53 PM 57.0 °F 35.1 °F 44% 29.88 in 10.0 mi NW 27.6 mph 36.8 mph N/A   Scattered Clouds
7:53 PM 53.1 °F 36.0 °F 52% 29.89 in 10.0 mi NW 21.9 mph 32.2 mph N/A   Clear
8:53 PM 52.0 °F 37.0 °F 57% 29.90 in 10.0 mi NW 20.7 mph 27.6 mph N/A   Mostly Cloudy
9:53 PM 51.1 °F 36.0 °F 56% 29.91 in 10.0 mi NW 20.7 mph 27.6 mph N/A   Scattered Clouds
10:53 PM 50.0 °F 37.0 °F 61% 29.92 in 10.0 mi NW 16.1 mph 26.5 mph N/A   Scattered Clouds
11:53 PM 48.9 °F 37.0 °F 64% 29.93 in 10.0 mi NW 12.7 mph - N/A   Clear